EHI
0 2 4 4 3 4 4 4 5 7 7 3 1 0 0 0 0 0 1 0 0 0 0 0 0 0 0 0 0 0 0 0 0 0 0 0 0 0 0 0 0 0 0
1 3 5 5 5 5 6 7 9 12 12 9 4 1 0 0 0 0 1 0 0 0 0 0 0 0 0 0 0 0 0 0 0 0 0 0 0 0 0 0 0 0 0
1 3 4 6 7 8 9 12 16 19 20 16 10 5 2 1 0 0 0 0 0 0 0 0 0 0 0 0 0 0 0 0 0 0 0 0 0 0 0 0 0 0 0
1 1 3 6 8 9 11 16 21 26 26 22 15 9 5 2 1 0 0 0 0 0 0 0 0 0 0 0 0 0 0 0 0 0 0 0 0 0 0 0 0 0 0
0 2 5 7 7 9 12 16 21 28 31 27 19 13 9 5 2 0 0 0 0 0 0 0 0 0 0 0 0 0 0 0 0 0 0 0 0 0 0 0 0 0 0
0 3 8 8 7 8 10 13 20 28 34 33 26 19 14 10 5 1 1 0 0 0 0 0 0 0 0 0 0 0 0 0 0 0 0 0 0 1 0 0 0 0 0
0 2 8 10 6 5 7 12 21 32 39 39 33 26 20 15 9 4 2 1 0 0 0 0 0 0 0 0 0 0 0 0 0 0 0 0 0 0 0 0 0 0 0
0 2 7 9 5 3 5 9 20 34 41 41 36 30 24 18 12 7 4 2 1 0 0 0 0 0 0 0 0 0 0 0 0 0 0 1 2 1 0 0 0 0 0
0 2 5 6 3 2 4 8 16 27 34 34 30 25 21 16 11 8 6 4 3 1 0 0 0 0 0 0 0 0 0 0 0 0 0 6 10 6 0 0 0 0 0
0 1 3 4 2 1 3 8 13 18 23 24 22 19 15 9 7 7 8 9 7 3 1 0 0 0 1 1 2 2 1 0 0 0 0 12 22 12 0 0 0 0 0
0 1 2 3 2 1 2 5 9 11 14 15 14 14 10 5 4 5 12 19 15 4 1 0 0 0 1 2 7 8 4 0 0 0 3 19 28 14 0 0 0 0 0
0 0 1 3 3 1 1 2 4 6 8 7 8 10 9 5 4 4 12 22 16 4 1 0 0 0 1 2 8 12 6 1 0 0 11 30 30 12 1 0 0 0 0
0 0 1 2 3 3 3 3 4 5 6 5 6 10 11 9 7 6 11 14 10 3 1 1 1 1 0 2 5 6 4 1 1 1 15 34 29 10 1 0 0 0 0
0 0 1 3 5 7 8 7 7 8 7 6 8 10 12 13 10 9 12 12 7 4 4 3 3 2 1 1 1 1 2 2 1 3 15 27 23 9 2 1 0 1 1
0 0 1 4 10 16 17 13 10 9 8 7 7 9 12 14 13 12 14 13 9 7 8 8 7 6 4 2 0 0 1 2 2 5 12 19 16 8 3 1 0 1 1
1 1 3 6 14 22 24 18 11 8 6 4 5 8 12 16 19 17 15 15 14 12 14 15 15 14 11 7 4 3 3 3 4 5 9 13 12 8 4 2 1 1 1
6 6 6 9 16 25 28 23 14 7 5 6 7 10 13 16 22 24 22 22 23 22 24 28 29 27 24 19 16 13 13 12 9 6 6 7 10 9 6 4 4 2 1
14 14 12 12 17 25 31 29 20 12 11 12 14 16 15 15 21 28 28 27 29 30 33 37 39 39 38 35 33 29 27 25 18 9 5 5 7 10 9 7 7 6 4
24 22 18 16 17 22 27 29 23 17 15 13 16 20 20 17 20 25 26 25 26 30 33 36 39 42 46 46 42 37 33 31 24 13 6 5 7 9 9 9 10 8 5
30 26 20 16 14 16 20 22 19 15 12 10 13 18 19 17 17 18 19 19 21 24 27 30 32 36 44 47 42 35 31 28 23 15 9 7 8 8 7 9 11 11 9
29 25 19 14 11 12 14 14 13 11 8 6 7 9 9 9 10 10 11 12 14 17 21 24 26 28 36 42 41 34 26 22 20 15 10 9 9 8 7 9 14 17 18
25 22 18 13 10 9 8 8 8 7 5 3 2 2 2 2 3 4 5 6 8 11 12 15 20 24 28 34 40 34 22 19 19 16 13 11 9 9 9 9 14 21 22
18 17 14 12 10 8 6 4 4 5 3 1 1 1 1 0 0 1 1 1 3 5 5 6 12 17 21 25 31 31 24 21 22 21 17 12 10 9 8 7 10 14 17
12 10 10 10 12 14 13 10 8 6 3 1 2 3 3 1 0 0 0 0 1 1 1 1 4 9 13 15 20 23 23 24 23 22 19 14 11 9 7 7 6 8 11
8 7 9 13 20 26 27 26 23 15 7 5 6 7 6 4 2 0 0 0 0 0 0 0 1 4 7 9 13 15 18 19 19 18 17 15 14 11 9 9 8 8 9
7 7 10 17 27 36 38 39 37 26 14 10 10 8 7 6 3 1 1 1 1 0 0 0 0 1 4 7 11 12 14 15 15 14 12 14 17 15 13 12 11 10 11
Wind_Speed
14 18 21 17 15 14 14 14 14 14 14 14 13 12 11 11 10 9 8 8 7 7 7 8 8 8 8 8 8 8 8 8 8 8 9 8 8 7 7 7 6 9 11
16 19 21 17 16 15 14 14 14 14 14 13 13 12 11 10 10 9 8 7 7 7 7 7 7 7 6 7 7 7 7 7 7 7 8 8 7 6 6 4 3 9 9
17 19 20 17 16 15 14 14 14 14 13 13 12 12 11 10 9 9 8 7 6 6 6 5 5 5 5 6 6 6 6 6 6 6 7 7 9 7 5 4 4 8 8
17 17 17 18 16 15 14 14 13 13 13 12 12 11 10 10 9 8 7 6 6 5 5 4 4 4 4 4 5 5 5 5 5 6 8 4 7 10 6 6 6 7 7
16 16 17 18 16 15 14 14 13 13 12 12 11 11 10 9 9 8 7 6 5 5 4 4 4 4 4 4 4 4 4 4 5 10 4 3 3 9 7 7 7 8 8
16 16 17 18 16 15 14 14 13 13 12 12 11 10 10 9 8 8 7 6 5 5 5 5 5 5 5 5 5 5 5 5 8 10 5 6 5 9 7 8 9 10 10
15 14 18 17 16 15 14 14 13 13 12 12 11 10 10 9 8 8 7 7 6 6 6 6 6 7 7 7 7 7 7 7 11 9 6 7 4 8 7 9 10 11 12
14 13 16 17 15 15 14 14 13 13 13 12 12 11 10 10 9 9 8 8 8 8 8 8 8 8 9 9 9 9 9 10 12 11 9 9 5 7 8 10 11 12 13
13 12 13 15 15 14 13 13 13 13 13 12 12 11 11 10 10 10 10 10 10 10 10 10 10 10 10 10 11 11 11 11 13 10 10 8 9 9 10 12 12 13 13
10 11 12 13 13 13 14 14 13 13 13 12 12 12 12 11 12 13 12 13 12 12 12 12 12 12 12 11 12 12 12 12 15 14 9 7 11 10 12 13 14 14 14
10 9 9 11 11 11 11 13 14 13 13 13 13 14 12 12 13 12 15 11 12 13 13 13 13 13 12 14 15 14 13 11 13 10 8 5 11 11 13 14 15 15 15
13 12 9 9 9 10 7 7 9 10 11 12 10 11 11 10 8 9 5 8 12 14 15 15 15 14 14 11 13 16 10 13 12 9 7 9 10 12 14 15 16 16 16
12 11 11 10 8 8 6 6 5 5 6 9 11 10 9 8 7 8 6 8 11 13 13 12 14 12 11 8 7 8 10 9 7 7 7 12 12 14 15 16 16 16 16
11 11 11 10 9 8 7 6 6 6 5 6 7 9 9 6 7 7 6 7 6 6 7 8 7 10 10 11 11 11 11 8 8 6 5 10 12 14 16 16 16 16 16
10 10 10 10 9 8 7 6 6 6 6 6 6 7 8 8 8 8 6 6 8 8 8 8 9 9 10 11 11 12 12 11 11 9 6 9 12 14 16 16 16 16 15
9 9 9 10 10 9 7 7 7 7 6 7 7 8 9 8 8 8 8 8 9 8 8 8 10 9 9 9 11 11 12 12 10 10 9 8 12 14 15 16 16 15 15
8 8 9 9 9 9 9 8 7 7 7 7 7 8 9 10 9 9 9 9 9 8 9 9 10 9 9 9 11 11 10 11 11 10 10 9 9 13 17 17 16 15 15
6 6 7 6 7 8 7 6 6 6 7 6 7 7 9 10 10 9 9 10 9 8 8 8 8 8 9 8 9 9 9 8 10 11 11 10 9 9 12 17 16 15 15
5 5 5 5 5 5 5 4 6 5 6 6 6 7 7 9 10 9 9 9 10 8 8 9 8 8 9 9 9 8 9 9 9 10 11 12 11 10 11 10 15 15 15
6 6 5 5 4 4 3 3 4 4 5 5 5 5 7 7 8 8 8 9 9 8 8 8 9 9 9 9 9 9 9 9 8 9 11 11 11 13 13 13 10 12 17
7 7 6 5 5 3 2 2 2 2 3 3 4 4 6 6 7 7 8 8 8 8 9 10 9 10 9 7 8 8 9 12 12 10 10 11 13 13 12 12 11 10 8
7 6 6 6 5 4 2 1 1 3 3 3 4 3 5 6 7 7 7 8 8 8 10 10 10 9 9 7 6 6 7 8 10 11 11 12 13 12 12 14 12 11 10
5 4 3 3 4 4 3 3 2 2 4 3 3 3 4 6 6 7 8 8 8 9 8 8 9 11 9 8 8 8 7 7 5 6 11 11 11 10 11 10 13 12 12
2 2 3 3 4 4 5 4 4 4 5 4 4 4 5 6 6 6 7 8 8 8 8 10 9 9 10 10 8 9 10 9 7 6 7 9 11 11 11 9 11 10 11
2 2 3 4 5 5 6 5 6 7 5 5 5 5 6 6 6 6 7 7 7 8 8 9 9 10 9 10 9 9 10 10 12 10 9 8 8 9 10 10 9 8 9
4 4 4 4 6 6 7 7 8 8 8 8 8 7 7 5 5 6 7 7 8 8 8 9 9 11 10 11 10 10 9 9 10 11 12 11 9 8 8 7 7 7 7
Wind_Direction
160 148 151 161 159 154 149 145 144 143 144 144 144 144 143 140 137 133 129 125 120 114 107 109 110 106 102 101 105 111 112 113 114 114 112 109 108 110 116 130 168 124 116
152 146 153 162 161 157 153 148 145 145 146 147 147 147 145 143 141 138 136 134 130 123 115 113 114 113 110 108 110 115 120 124 125 125 132 134 125 122 127 138 346 103 133
149 146 157 164 163 160 156 152 150 150 151 151 151 152 151 149 148 146 144 143 139 134 129 127 125 123 122 121 123 127 132 137 140 149 197 178 135 142 147 145 111 124 146
149 150 160 161 165 163 160 157 157 156 156 156 157 157 156 156 157 155 154 154 152 149 147 147 147 146 143 142 143 146 151 156 164 193 216 161 146 140 166 168 165 165 165
151 153 151 161 167 166 164 164 163 163 162 163 163 164 165 166 167 166 165 167 171 171 172 175 178 177 176 176 174 177 182 189 199 236 225 200 162 138 180 188 188 189 186
156 155 149 166 169 169 169 170 171 171 170 171 172 174 176 177 179 180 182 187 194 200 202 203 206 207 206 206 207 208 211 216 230 233 218 223 208 150 193 208 206 203 200
158 154 151 167 171 173 175 176 178 179 180 181 183 185 188 191 195 199 202 206 212 220 226 227 225 224 222 220 221 224 228 231 251 254 232 234 225 146 204 227 225 216 208
157 158 147 165 174 177 180 183 186 188 190 191 194 196 200 204 209 215 219 222 225 229 235 239 239 234 230 227 226 228 232 244 245 247 241 235 183 164 221 238 239 231 217
161 163 155 169 177 182 187 191 194 197 199 201 204 207 210 215 220 225 229 232 234 236 237 240 243 244 241 235 231 231 233 238 262 260 250 243 163 185 226 239 243 240 229
168 173 166 177 179 185 188 195 202 205 208 211 215 218 221 225 228 229 233 228 233 239 242 244 244 245 245 242 238 236 236 239 245 250 241 221 162 197 229 240 245 245 237
179 185 188 181 184 197 200 184 197 208 214 219 220 221 228 236 233 219 227 222 231 239 244 248 249 248 248 240 236 236 236 242 245 246 248 174 167 209 234 241 244 246 243
183 188 195 204 188 203 209 193 210 213 209 219 232 223 225 236 250 256 224 215 239 247 250 248 250 249 244 245 226 219 234 235 248 244 233 170 188 222 237 241 243 244 244
182 188 193 205 204 214 209 218 218 228 226 225 232 238 247 257 249 246 245 218 225 234 242 236 232 237 237 240 250 232 240 252 250 251 233 173 199 225 237 240 241 241 240
185 190 196 196 202 218 231 229 230 234 234 242 232 236 244 248 259 261 259 265 260 248 248 258 254 251 250 248 246 251 250 244 252 257 244 182 205 226 238 241 241 240 237
191 197 201 199 203 209 221 244 244 246 252 246 255 249 253 256 257 262 262 262 266 266 257 251 258 262 260 256 254 251 253 254 253 251 247 204 214 228 238 242 242 241 238
201 202 200 205 206 210 216 227 247 255 248 261 256 254 254 258 263 266 263 259 260 262 265 266 265 263 259 257 255 255 257 258 255 252 254 233 217 225 234 241 242 242 238
198 202 200 204 208 212 223 232 241 251 258 261 265 262 258 259 261 261 266 265 262 264 263 260 262 262 259 257 255 254 252 253 254 256 258 259 245 224 225 233 237 238 238
194 187 198 205 203 211 227 244 259 266 271 268 270 271 265 266 264 264 266 268 269 267 263 259 258 258 258 258 257 256 252 249 253 254 254 249 249 251 229 220 225 231 235
173 172 183 195 200 210 223 238 257 268 274 278 280 280 281 278 273 267 269 271 273 268 263 262 259 258 262 262 260 258 256 250 250 253 254 255 251 248 254 230 213 222 230
151 159 162 173 183 196 204 221 253 265 272 277 287 292 295 289 286 285 277 278 279 273 268 265 266 259 257 259 266 264 257 254 248 248 253 255 251 249 246 249 236 222 219
145 149 152 159 162 183 187 236 256 281 293 296 296 313 304 303 306 298 293 295 285 279 278 276 271 265 257 253 258 259 252 247 244 244 246 250 249 247 248 247 246 247 224
146 149 158 168 166 186 168 229 283 311 302 313 312 313 306 313 310 300 305 297 295 292 282 279 273 270 267 248 244 257 259 245 233 236 238 240 243 241 241 241 239 237 244
147 158 163 170 180 200 201 224 228 243 257 269 294 294 310 311 307 308 304 298 300 288 286 287 280 271 269 263 245 245 254 257 261 231 231 237 237 236 237 240 240 235 232
168 188 196 204 212 216 223 241 263 281 296 311 301 309 306 295 299 302 299 298 295 293 293 283 281 280 272 266 255 243 248 266 266 261 236 231 230 234 238 241 243 235 232
293 264 243 234 235 234 242 245 252 264 278 286 293 290 288 290 288 292 296 296 294 289 293 293 291 280 274 269 267 259 250 248 248 255 258 245 232 230 228 229 238 241 234
328 311 290 269 260 256 253 255 256 268 274 283 286 292 287 289 284 284 291 291 287 289 290 285 283 276 272 273 270 263 256 251 244 243 249 248 245 238 230 228 232 233 232